period_start,C,m1,H,J0,J1,J2,J3,J4,J5,JA,JB,JC,JD,JJ,JK,JN,#
2018-03-29 00:01:32,0.12,0.82,0.00,24.85,28.28,31.32,13.73,47.55,1005.40,2023.85,3146.99,2845.96,3263.21,600.06,585.86,8.39,0000 0000 0000 0000 000000
2018-03-29 00:06:33,0.07,0.82,0.00,24.88,28.31,31.36,13.76,47.70,1005.40,2023.28,3144.29,2844.10,3261.07,600.40,586.13,8.44,0000 0000 0000 0000 000000
2018-03-29 00:11:35,0.12,0.83,0.00,24.92,28.36,31.40,13.73,47.63,1005.39,2023.03,3141.59,2842.13,3258.80,599.71,585.38,8.49,0000 0000 0000 0000 000000
2018-03-29 00:16:36,0.13,0.83,0.00,24.93,28.40,31.43,13.64,47.61,1005.39,2023.00,3139.01,2840.34,3256.62,599.72,585.36,8.54,0000 0000 0000 0000 000000
2018-03-29 00:21:37,0.14,0.84,0.00,24.96,28.45,31.47,13.73,47.60,1005.39,2023.00,3136.34,2838.43,3254.40,599.95,585.46,8.59,0000 0000 0000 0000 000000
2018-03-29 00:26:38,0.13,0.85,0.00,25.00,28.49,31.50,13.64,47.50,1005.38,2022.96,3133.78,2836.50,3252.14,600.07,585.43,8.64,0000 0000 0000 0000 000000
2018-03-29 00:31:39,0.11,0.85,0.00,25.04,28.53,31.53,13.66,47.53,1005.27,2022.73,3131.06,2834.58,3249.85,599.85,585.16,8.69,0000 0000 0000 0000 000000
2018-03-29 00:36:41,0.08,0.86,0.00,25.07,28.57,31.57,13.72,47.48,1005.18,2022.18,3128.38,2832.65,3247.60,600.22,585.26,8.74,0000 0000 0000 0000 000000
2018-03-29 00:41:42,0.13,0.86,0.00,25.11,28.61,31.61,13.74,47.42,1005.35,2022.04,3125.67,2830.74,3245.36,600.21,585.44,8.79,0000 0000 0000 0000 000000
2018-03-29 00:46:43,0.13,0.87,0.00,25.14,28.65,31.63,13.74,47.38,1005.38,2022.00,3123.04,2828.82,3243.09,600.30,585.45,8.84,0000 0000 0000 0000 000000
2018-03-29 00:51:44,0.14,0.88,0.00,25.19,28.69,31.69,13.62,47.29,1005.36,2022.00,3120.34,2826.94,3240.83,599.90,585.02,8.89,0000 0000 0000 0000 000000
2018-03-29 00:56:45,0.13,0.89,0.00,25.23,28.72,31.70,13.59,47.46,1005.34,2021.96,3117.57,2824.99,3238.53,599.68,584.72,8.94,0000 0000 0000 0000 000000
2018-03-29 01:01:46,0.12,0.89,0.00,25.26,28.75,31.74,13.77,47.45,1005.31,2021.89,3114.91,2823.11,3236.38,600.34,585.34,8.99,0000 0000 0000 0000 000000
2018-03-29 01:06:48,0.10,0.90,0.00,25.29,28.77,31.77,13.61,47.32,1005.19,2021.52,3112.18,2821.22,3234.12,600.00,584.75,9.04,0000 0000 0000 0000 000000
2018-03-29 01:11:49,0.10,0.90,0.00,25.37,28.80,31.82,13.70,47.39,1005.01,2021.14,3109.46,2819.39,3231.97,600.42,585.04,9.09,0000 0000 0000 0000 000000
2018-03-29 01:16:51,0.12,0.91,0.00,25.46,28.81,31.95,13.68,47.36,1004.95,2021.04,3106.86,2817.54,3229.75,600.15,584.36,9.14,0000 0000 0000 0000 000000
2018-03-29 01:21:52,0.13,0.92,0.00,25.55,28.83,31.86,13.74,47.42,1004.91,2021.02,3104.20,2815.77,3227.51,600.22,584.33,9.19,0000 0000 0000 0000 000000
2018-03-29 01:26:53,0.13,0.92,0.00,25.61,28.85,31.89,13.61,47.48,1004.90,2021.00,3101.45,2813.97,3225.37,599.77,583.78,9.24,0000 0000 0000 0000 000000
2018-03-29 01:31:55,0.14,0.93,0.00,25.64,28.85,31.84,13.67,47.54,1004.90,2021.00,3098.61,2812.05,3223.13,600.05,584.20,9.29,0000 0000 0000 0000 000000
2018-03-29 01:36:56,0.13,0.94,0.00,25.67,28.85,31.78,13.73,47.56,1004.90,2021.00,3095.85,2810.23,3220.98,600.42,584.34,9.34,0000 0000 0000 0000 000000
2018-03-29 01:41:58,0.13,0.94,0.00,25.71,28.83,31.73,13.54,47.38,1004.90,2021.00,3093.28,2808.56,3218.98,599.65,583.41,9.39,0000 0000 0000 0000 000000
2018-03-29 01:46:59,0.13,0.95,0.00,25.76,28.82,31.65,13.62,47.52,1004.90,2021.00,3090.64,2806.80,3216.95,599.97,583.71,9.44,0000 0000 0000 0000 000000
2018-03-29 01:52:00,0.12,0.96,0.00,25.81,28.80,31.57,13.60,47.59,1004.90,2021.00,3088.19,2805.14,3214.97,599.85,583.48,9.49,0000 0000 0000 0000 000000
2018-03-29 01:57:02,0.13,0.96,0.00,25.87,28.80,31.54,13.68,47.66,1004.90,2021.00,3085.63,2803.41,3212.86,599.87,583.33,9.54,0000 0000 0000 0000 000000
2018-03-29 02:02:03,0.13,0.97,0.00,25.93,28.78,31.47,13.59,47.54,1004.90,2021.00,3083.11,2801.69,3210.84,599.73,583.05,9.59,0000 0000 0000 0000 000000
2018-03-29 02:07:04,0.12,0.98,0.00,26.00,28.77,31.44,13.58,47.67,1004.90,2021.00,3080.56,2799.96,3208.84,599.91,583.22,9.64,0000 0000 0000 0000 000000
2018-03-29 02:12:05,0.13,0.98,0.00,26.07,28.76,31.49,13.64,47.45,1004.90,2021.00,3077.98,2798.24,3206.75,600.14,583.22,9.69,0000 0000 0000 0000 000000
2018-03-29 02:17:06,0.13,0.99,0.00,26.12,28.75,31.49,13.66,47.52,1004.90,2021.00,3075.39,2796.53,3204.71,600.24,583.19,9.74,0000 0000 0000 0000 000000
2018-03-29 02:22:07,0.13,1.00,0.00,25.98,28.72,31.53,13.60,47.46,1004.90,2021.00,3072.79,2794.79,3202.69,600.05,583.39,9.79,0000 0000 0000 0000 000000
2018-03-29 02:27:09,0.16,1.00,0.00,25.85,28.71,31.56,13.52,47.50,1004.90,2021.00,3069.82,2792.76,3200.35,599.76,583.36,9.84,0000 0000 0000 0000 000000
2018-03-29 02:32:10,0.20,1.01,0.00,25.85,28.70,31.55,13.57,47.41,1004.91,2021.00,3065.96,2790.22,3197.48,600.09,583.62,9.89,0000 0000 0000 0000 000000
2018-03-29 02:37:11,0.26,1.03,0.00,25.86,28.67,31.54,13.65,47.55,1004.91,2021.02,3060.99,2787.00,3193.77,599.79,583.28,9.94,0000 0000 0000 0000 000000
2018-03-29 02:42:13,0.28,1.04,0.00,25.88,28.66,31.53,13.55,47.60,1004.90,2021.04,3055.41,2783.34,3189.65,599.53,583.09,9.99,0000 0000 0000 0000 000000
2018-03-29 02:47:14,0.26,1.05,0.00,25.93,28.65,31.52,13.65,47.62,1004.90,2021.03,3049.95,2779.79,3185.59,600.10,583.50,10.05,0000 0000 0000 0000 000000
2018-03-29 02:52:15,0.27,1.07,0.00,25.98,28.65,31.53,13.58,47.52,1004.90,2021.10,3044.77,2776.41,3181.78,599.70,583.09,10.10,0000 0000 0000 0000 000000
2018-03-29 02:57:16,0.26,1.08,0.00,26.03,28.64,31.49,13.60,47.52,1004.90,2021.11,3039.62,2772.96,3177.87,600.04,583.25,10.15,0000 0000 0000 0000 000000
2018-03-29 03:02:17,0.27,1.09,0.00,26.08,28.64,31.39,13.64,47.59,1004.90,2021.06,3034.17,2769.35,3173.82,600.03,583.12,10.20,0000 0000 0000 0000 000000
2018-03-29 03:07:18,0.27,1.11,0.00,26.14,28.65,31.39,13.60,47.67,1004.90,2021.03,3028.82,2765.83,3169.76,599.92,582.98,10.25,0000 0000 0000 0000 000000
2018-03-29 03:12:20,0.23,1.12,0.00,26.20,28.65,31.38,13.46,47.63,1004.90,2021.04,3024.13,2762.74,3166.10,599.80,582.71,10.30,0000 0000 0000 0000 000000
2018-03-29 03:17:21,0.24,1.13,0.00,26.26,28.65,31.39,13.57,47.68,1004.90,2021.06,3019.55,2759.62,3162.55,600.08,582.92,10.35,0000 0000 0000 0000 000000
2018-03-29 03:22:22,0.24,1.14,0.00,26.32,28.67,31.40,13.56,47.65,1004.90,2021.02,3014.79,2756.43,3158.95,600.05,582.59,10.40,0000 0000 0000 0000 000000
2018-03-29 03:27:23,0.24,1.16,0.00,26.39,28.68,31.41,13.54,47.75,1004.90,2021.01,3010.09,2753.26,3155.29,599.69,582.14,10.45,0000 0000 0000 0000 000000
2018-03-29 03:32:24,0.24,1.17,0.00,26.45,28.70,31.43,13.59,47.72,1004.90,2021.01,3005.40,2750.20,3151.69,600.14,582.46,10.50,0000 0000 0000 0000 000000
2018-03-29 03:37:26,0.23,1.18,0.00,26.50,28.72,31.46,13.61,47.67,1004.90,2021.00,3000.90,2747.16,3148.03,600.11,582.38,10.55,0000 0000 0000 0000 000000
2018-03-29 03:42:27,0.24,1.19,0.00,26.58,28.75,31.48,13.46,47.67,1004.88,2021.00,2996.27,2744.05,3144.49,599.71,581.88,10.60,0000 0000 0000 0000 000000
2018-03-29 03:47:28,0.24,1.21,0.00,26.66,28.77,31.52,13.52,47.52,1004.88,2021.00,2991.64,2740.94,3140.90,600.32,582.27,10.65,0000 0000 0000 0000 000000
2018-03-29 03:52:29,0.20,1.22,0.00,26.74,28.80,31.53,13.50,47.52,1004.84,2020.99,2987.71,2738.23,3137.85,600.07,581.86,10.70,0000 0000 0000 0000 000000
2018-03-29 03:57:30,0.18,1.23,0.00,26.79,28.83,31.58,13.55,47.58,1004.86,2020.97,2984.11,2735.76,3134.97,600.10,581.77,10.75,0000 0000 0000 0000 000000
2018-03-29 04:02:32,0.21,1.24,0.00,26.85,28.86,31.61,13.53,47.58,1004.90,2020.89,2979.97,2732.98,3131.87,600.10,581.71,10.80,0000 0000 0000 0000 000000
2018-03-29 04:07:33,0.20,1.25,0.00,26.90,28.89,31.64,13.54,47.77,1004.90,2020.68,2975.63,2730.01,3128.53,600.09,581.63,10.85,0000 0000 0000 0000 000000
2018-03-29 04:12:35,0.16,1.26,0.00,26.97,28.92,31.69,13.51,47.63,1004.90,2020.13,2971.38,2727.14,3125.25,600.13,581.51,10.90,0000 0000 0000 0000 000000
2018-03-29 04:17:36,0.23,1.27,0.00,27.05,28.96,31.74,13.51,47.58,1004.93,2020.01,2966.95,2724.15,3121.80,600.02,581.25,10.95,0000 0000 0000 0000 000000
2018-03-29 04:22:37,0.23,1.28,0.00,27.09,29.00,31.77,13.50,47.56,1004.97,2020.00,2962.56,2721.14,3118.34,600.00,581.05,11.00,0000 0000 0000 0000 000000
2018-03-29 04:27:38,0.33,1.29,0.00,27.15,29.03,31.82,13.45,47.60,1005.21,2020.00,2956.82,2717.28,3113.87,599.97,581.17,11.05,0000 0000 0000 0000 000000
2018-03-29 04:32:40,0.29,1.31,0.00,27.21,29.07,31.85,13.52,47.54,1005.27,2019.97,2950.98,2713.38,3109.33,599.90,581.03,11.10,0000 0000 0000 0000 000000
2018-03-29 04:37:41,0.25,1.32,0.00,27.25,29.11,31.90,13.45,47.58,1005.02,2019.59,2945.36,2709.61,3104.98,599.79,580.56,11.15,0000 0000 0000 0000 000000
2018-03-29 04:42:42,0.22,1.33,0.00,27.30,29.16,31.96,13.52,47.56,1005.30,2019.10,2940.34,2706.15,3100.95,600.09,581.01,11.20,0000 0000 0000 0000 000000
2018-03-29 04:47:44,0.26,1.35,0.00,27.34,29.19,31.98,13.50,47.58,1005.38,2019.00,2935.45,2702.85,3097.15,599.90,580.82,11.25,0000 0000 0000 0000 000000
2018-03-29 04:52:45,0.31,1.36,0.00,27.39,29.23,32.03,13.53,47.59,1005.39,2019.00,2929.91,2699.11,3092.84,599.80,580.85,11.30,0000 0000 0000 0000 000000
2018-03-29 04:57:47,0.28,1.38,0.00,27.45,29.27,32.06,13.44,47.42,1005.39,2018.98,2924.49,2695.51,3088.71,600.19,580.91,11.35,0000 0000 0000 0000 000000
2018-03-29 05:02:48,0.25,1.39,0.00,27.51,29.31,32.11,13.54,47.42,1005.39,2018.85,2919.44,2692.12,3084.79,599.88,580.46,11.40,0000 0000 0000 0000 000000
2018-03-29 05:07:49,0.20,1.40,0.00,27.55,29.36,32.17,13.61,47.42,1005.41,2018.28,2914.52,2688.75,3080.94,600.52,581.10,11.45,0000 0000 0000 0000 000000
2018-03-29 05:12:51,0.23,1.41,0.00,27.62,29.40,32.20,13.49,47.48,1005.41,2018.02,2909.91,2685.67,3077.33,600.06,580.45,11.50,0000 0000 0000 0000 000000
2018-03-29 05:17:52,0.22,1.42,0.00,27.66,29.44,32.24,13.47,47.45,1005.39,2018.00,2905.82,2682.80,3073.99,600.38,580.64,11.55,0000 0000 0000 0000 000000
2018-03-29 05:22:53,0.19,1.43,0.00,27.72,29.49,32.29,13.50,47.52,1005.39,2017.99,2902.24,2680.30,3071.15,600.34,580.55,11.60,0000 0000 0000 0000 000000
2018-03-29 05:27:54,0.19,1.44,0.00,27.76,29.53,32.36,13.47,47.42,1005.40,2017.86,2898.50,2677.65,3068.17,599.90,580.08,11.65,0000 0000 0000 0000 000000
2018-03-29 05:32:55,0.15,1.45,0.00,27.79,29.58,32.40,13.52,47.49,1005.49,2017.23,2894.70,2674.99,3065.12,600.02,580.15,11.70,0000 0000 0000 0000 000000
2018-03-29 05:37:57,0.21,1.46,0.00,27.84,29.62,32.45,13.45,47.55,1005.66,2017.02,2890.78,2672.26,3061.98,599.73,579.87,11.75,0000 0000 0000 0000 000000
2018-03-29 05:42:58,0.32,1.48,0.00,27.89,29.67,32.50,13.45,47.42,1005.61,2017.00,2885.57,2668.56,3057.66,599.99,580.07,11.80,0000 0000 0000 0000 000000
2018-03-29 05:47:59,0.40,1.50,0.00,27.93,29.72,32.54,13.41,47.38,1005.53,2017.00,2878.87,2663.74,3052.16,599.92,579.70,11.85,0000 0000 0000 0000 000000
2018-03-29 05:53:01,0.36,1.52,0.00,27.98,29.76,32.58,13.51,47.27,1005.42,2016.75,2871.76,2658.67,3046.39,600.28,580.01,11.90,0000 0000 0000 0000 000000
2018-03-29 05:58:02,0.32,1.53,0.00,28.02,29.80,32.63,13.47,47.24,1005.64,2016.12,2865.07,2653.92,3041.01,599.97,579.76,11.95,0000 0000 0000 0000 000000
2018-03-29 06:03:03,0.33,1.55,0.00,28.06,29.85,32.68,13.52,47.47,1005.87,2016.02,2858.91,2649.60,3036.09,600.25,579.93,12.00,0000 0000 0000 0000 000000
2018-03-29 06:08:04,0.28,1.56,0.00,28.09,29.89,32.72,13.50,47.37,1005.87,2016.00,2853.74,2646.04,3032.01,599.92,579.70,12.05,0000 0000 0000 0000 000000
2018-03-29 06:13:05,0.28,1.58,0.00,28.13,29.93,32.78,13.53,47.45,1005.84,2015.99,2848.84,2642.61,3028.04,600.18,579.85,12.10,0000 0000 0000 0000 000000
2018-03-29 06:18:06,0.28,1.59,0.00,28.17,29.98,32.84,13.42,47.45,1005.88,2015.85,2843.69,2638.99,3023.89,599.55,579.18,12.15,0000 0000 0000 0000 000000
2018-03-29 06:23:08,0.20,1.60,0.00,28.19,30.02,32.86,13.48,47.38,1005.88,2015.22,2838.71,2635.52,3019.98,600.05,579.67,12.20,0000 0000 0000 0000 000000
2018-03-29 06:28:09,0.25,1.62,0.00,28.24,30.07,32.89,13.49,47.51,1005.88,2015.01,2834.12,2632.34,3016.38,599.97,579.46,12.25,0000 0000 0000 0000 000000
2018-03-29 06:33:11,0.28,1.63,0.00,28.28,30.11,32.96,13.50,47.48,1005.90,2014.99,2829.47,2629.01,3012.49,599.71,579.21,12.30,0000 0000 0000 0000 000000
2018-03-29 06:38:12,0.26,1.64,0.00,28.31,30.16,33.00,13.46,47.52,1005.91,2014.91,2824.62,2625.62,3008.64,599.72,579.22,12.35,0000 0000 0000 0000 000000
2018-03-29 06:43:13,0.20,1.66,0.00,28.35,30.20,33.03,13.45,47.48,1005.92,2014.40,2819.72,2622.38,3004.91,599.59,578.85,12.40,0000 0000 0000 0000 000000
2018-03-29 06:48:14,0.23,1.67,0.00,28.39,30.24,33.09,13.49,47.43,1005.96,2014.03,2815.22,2619.29,3001.27,600.07,579.31,12.46,0000 0000 0000 0000 000000
2018-03-29 06:53:16,0.24,1.68,0.00,28.43,30.28,33.12,13.45,47.40,1006.11,2014.00,2810.97,2616.34,2997.92,600.09,579.36,12.51,0000 0000 0000 0000 000000
2018-03-29 06:58:17,0.24,1.69,0.00,28.46,30.32,33.18,13.49,47.42,1006.29,2013.99,2806.81,2613.42,2994.52,600.05,579.28,12.56,0000 0000 0000 0000 000000
2018-03-29 07:03:18,0.24,1.70,0.00,28.52,30.36,33.22,13.49,47.35,1006.36,2013.97,2802.56,2610.47,2991.13,600.08,579.25,12.61,0000 0000 0000 0000 000000
2018-03-29 07:08:20,0.21,1.72,0.00,28.56,30.41,33.27,13.43,47.45,1006.36,2013.53,2798.04,2607.30,2987.45,599.54,578.71,12.66,0000 0000 0000 0000 000000
2018-03-29 07:13:21,0.25,1.73,0.00,28.61,30.45,33.29,13.49,47.42,1006.38,2013.05,2793.33,2603.98,2983.65,600.14,579.32,12.71,0000 0000 0000 0000 000000
2018-03-29 07:18:22,0.28,1.74,0.00,28.66,30.49,33.35,13.50,47.33,1006.41,2013.00,2788.52,2600.62,2979.78,599.88,578.71,12.76,0000 0000 0000 0000 000000
2018-03-29 07:23:23,0.31,1.76,0.00,28.72,30.54,33.36,13.49,47.29,1006.39,2012.99,2783.17,2596.93,2975.48,600.20,579.08,12.81,0000 0000 0000 0000 000000
2018-03-29 07:28:25,0.32,1.77,0.00,28.76,30.58,33.42,13.46,47.29,1006.38,2012.90,2777.36,2592.98,2970.98,600.04,578.80,12.86,0000 0000 0000 0000 000000
2018-03-29 07:33:26,0.26,1.79,0.00,28.79,30.62,33.47,13.50,47.27,1006.51,2012.49,2771.84,2589.15,2966.64,599.83,578.83,12.91,0000 0000 0000 0000 000000
2018-03-29 07:38:27,0.29,1.80,0.00,28.83,30.67,33.50,13.47,47.23,1006.78,2012.06,2766.34,2585.37,2962.29,600.48,579.39,12.96,0000 0000 0000 0000 000000
2018-03-29 07:43:28,0.31,1.82,0.00,28.87,30.71,33.54,13.44,47.27,1006.80,2012.00,2760.88,2581.61,2958.00,599.52,578.34,13.01,0000 0000 0000 0000 000000
2018-03-29 07:48:29,0.35,1.83,0.00,28.90,30.76,33.58,13.48,47.31,1006.85,2012.00,2755.12,2577.65,2953.54,599.92,578.70,13.06,0000 0000 0000 0000 000000
2018-03-29 07:53:30,0.32,1.85,0.00,28.95,30.80,33.62,13.43,47.17,1006.85,2011.93,2749.49,2573.73,2949.00,600.06,578.76,13.11,0000 0000 0000 0000 000000
2018-03-29 07:58:32,0.23,1.86,0.00,29.00,30.84,33.65,13.46,47.11,1006.86,2011.38,2744.21,2570.01,2944.73,600.43,579.05,13.16,0000 0000 0000 0000 000000
2018-03-29 08:03:33,0.30,1.88,0.00,29.03,30.89,33.70,13.41,47.29,1006.86,2011.04,2738.88,2566.29,2940.57,599.52,578.02,13.21,0000 0000 0000 0000 000000
2018-03-29 08:08:34,0.60,1.90,0.00,29.09,30.93,33.75,13.41,47.32,1006.87,2011.00,2730.58,2560.27,2933.69,599.86,578.28,13.26,0000 0000 0000 0000 000000
2018-03-29 08:13:35,0.50,1.93,0.00,29.12,30.98,33.78,13.42,47.27,1006.88,2010.97,2721.69,2553.75,2926.12,599.99,578.28,13.31,0000 0000 0000 0000 000000
2018-03-29 08:18:37,0.44,1.95,0.00,29.18,31.01,33.82,13.34,47.27,1007.17,2010.83,2714.42,2548.49,2920.15,599.39,577.98,13.36,0000 0000 0000 0000 000000
2018-03-29 08:23:38,0.37,1.97,0.00,29.21,31.06,33.88,13.46,47.12,1007.29,2010.28,2707.25,2543.44,2914.41,600.16,578.57,13.41,0000 0000 0000 0000 000000
2018-03-29 08:28:39,0.73,2.00,0.00,29.23,31.10,33.93,13.38,47.20,1007.34,2010.03,2696.74,2535.79,2905.75,599.65,578.10,13.46,0000 0000 0000 0000 000000
2018-03-29 08:33:41,0.77,2.04,0.00,29.26,31.14,34.00,13.47,47.23,1007.34,2010.00,2684.57,2526.65,2895.47,599.82,578.25,13.51,0000 0000 0000 0000 000000
2018-03-29 08:38:42,0.48,2.07,0.00,29.27,31.18,34.05,13.42,47.13,1007.34,2009.97,2675.66,2520.28,2888.16,599.51,577.83,13.56,0000 0000 0000 0000 000000
2018-03-29 08:43:43,0.34,2.09,0.00,29.32,31.23,34.10,13.45,47.20,1007.34,2009.78,2669.34,2516.05,2883.37,599.81,578.08,13.61,0000 0000 0000 0000 000000
2018-03-29 08:48:45,0.37,2.11,0.00,29.35,31.27,34.15,13.41,47.29,1007.35,2009.19,2662.71,2511.53,2878.40,599.55,577.78,13.66,0000 0000 0000 0000 000000
2018-03-29 08:53:46,0.43,2.13,0.00,29.38,31.31,34.23,13.41,47.21,1007.37,2009.01,2655.45,2506.32,2872.58,599.81,577.98,13.71,0000 0000 0000 0000 000000
2018-03-29 08:58:47,0.30,2.15,0.00,29.40,31.36,34.30,13.48,47.27,1007.42,2009.00,2650.08,2502.65,2868.40,600.23,578.30,13.76,0000 0000 0000 0000 000000
2018-03-29 09:03:48,0.34,2.16,0.00,29.41,31.39,34.34,13.45,47.12,1007.46,2008.98,2645.01,2499.06,2864.17,600.09,578.24,13.81,0000 0000 0000 0000 000000
2018-03-29 09:08:50,0.33,2.18,0.00,29.43,31.43,34.38,13.40,47.18,1007.67,2008.76,2639.13,2495.06,2859.43,599.92,578.10,13.86,0000 0000 0000 0000 000000
2018-03-29 09:13:51,0.32,2.20,0.00,29.44,31.47,34.42,13.48,47.27,1007.81,2008.22,2633.12,2490.87,2854.60,600.05,578.30,13.91,0000 0000 0000 0000 000000
2018-03-29 09:18:52,0.27,2.21,0.00,29.44,31.51,34.43,13.41,47.04,1007.81,2008.05,2628.34,2487.45,2850.63,600.03,578.31,13.96,0000 0000 0000 0000 000000
2018-03-29 09:23:54,0.24,2.22,0.00,29.44,31.54,34.45,13.44,47.20,1007.83,2008.00,2624.76,2484.74,2847.39,600.24,578.54,14.01,0000 0000 0000 0000 000000
2018-03-29 09:28:55,0.37,2.24,0.00,29.45,31.57,34.45,13.44,47.25,1007.83,2008.00,2619.79,2480.96,2843.00,599.89,578.05,14.06,0000 0000 0000 0000 000000
2018-03-29 09:33:56,0.39,2.26,0.00,29.44,31.61,34.50,13.38,47.13,1007.83,2007.94,2613.58,2476.53,2838.03,599.46,577.85,14.11,0000 0000 0000 0000 000000
2018-03-29 09:38:57,0.33,2.28,0.00,29.45,31.63,34.52,13.39,47.13,1007.84,2007.60,2607.62,2472.25,2833.14,599.81,577.95,14.16,0000 0000 0000 0000 000000
2018-03-29 09:43:59,0.35,2.29,0.00,29.47,31.66,34.53,13.39,47.12,1007.86,2007.13,2601.66,2468.00,2828.32,599.62,577.87,14.21,0000 0000 0000 0000 000000
2018-03-29 09:49:00,0.31,2.31,0.00,29.46,31.68,34.53,13.46,46.98,1008.19,2007.01,2596.57,2464.26,2823.85,599.93,578.36,14.26,0000 0000 0000 0000 000000
2018-03-29 09:54:01,0.31,2.33,0.00,29.45,31.70,34.58,13.47,47.16,1008.32,2007.00,2591.91,2460.97,2820.23,600.04,578.58,14.31,0000 0000 0000 0000 000000
2018-03-29 09:59:02,0.29,2.34,0.00,29.42,31.72,34.58,13.44,47.12,1008.32,2007.00,2587.23,2457.60,2816.39,600.03,578.64,14.36,0000 0000 0000 0000 000000
2018-03-29 10:04:03,0.33,2.36,0.00,29.40,31.74,34.59,13.52,47.10,1008.32,2006.96,2582.34,2454.11,2812.36,600.27,578.93,14.41,0000 0000 0000 0000 000000
2018-03-29 10:09:05,0.31,2.38,0.00,29.39,31.75,34.63,13.47,47.10,1008.33,2006.77,2577.08,2450.41,2808.14,600.19,578.88,14.46,0000 0000 0000 0000 000000
2018-03-29 10:14:06,0.36,2.39,0.00,29.39,31.77,34.63,13.53,47.29,1008.54,2006.82,2571.53,2446.63,2803.94,599.98,578.74,14.51,0000 0000 0000 0000 000000
2018-03-29 10:19:08,0.29,2.41,0.00,29.38,31.77,34.65,13.56,47.16,1008.50,2006.62,2566.45,2443.06,2799.92,600.12,578.94,14.56,0000 0000 0000 0000 000000
2018-03-29 10:24:09,0.25,2.42,0.00,29.36,31.79,34.64,13.51,47.04,1008.71,2006.15,2561.81,2439.82,2796.05,600.29,579.25,14.61,0000 0000 0000 0000 000000
2018-03-29 10:29:10,0.26,2.44,0.00,29.32,31.80,34.65,13.46,47.13,1008.74,2006.02,2557.87,2436.97,2792.73,599.82,578.90,14.66,0000 0000 0000 0000 000000
2018-03-29 10:34:11,0.29,2.45,0.00,29.32,31.80,34.65,13.45,47.09,1008.79,2006.00,2553.44,2433.90,2789.20,600.05,579.14,14.71,0000 0000 0000 0000 000000
2018-03-29 10:39:13,0.30,2.47,0.00,29.28,31.81,34.67,13.52,47.15,1008.79,2006.01,2548.75,2430.77,2785.63,600.23,579.27,14.76,0000 0000 0000 0000 000000
2018-03-29 10:44:14,0.34,2.48,0.00,29.26,31.82,34.69,13.56,47.14,1008.79,2006.01,2543.76,2427.20,2781.54,600.30,579.50,14.81,0000 0000 0000 0000 000000
2018-03-29 10:49:15,0.33,2.50,0.00,29.25,31.82,34.68,13.48,47.22,1008.80,2006.00,2538.92,2423.72,2777.43,599.94,579.17,14.87,0000 0000 0000 0000 000000
2018-03-29 10:54:16,0.30,2.52,0.00,29.22,31.82,34.69,13.51,47.09,1008.85,2006.00,2534.40,2420.45,2773.56,599.91,579.25,14.92,0000 0000 0000 0000 000000
2018-03-29 10:59:18,0.26,2.53,0.00,29.20,31.82,34.70,13.54,47.17,1008.85,2005.99,2530.41,2417.62,2770.17,600.36,579.65,14.97,0000 0000 0000 0000 000000
2018-03-29 11:04:19,0.30,2.54,0.00,29.18,31.82,34.72,13.44,46.95,1009.01,2005.99,2526.28,2414.68,2766.74,600.12,579.59,15.02,0000 0000 0000 0000 000000
2018-03-29 11:09:21,0.29,2.56,0.00,29.17,31.82,34.73,13.52,47.04,1009.23,2005.98,2521.66,2411.52,2763.25,599.88,579.51,15.07,0000 0000 0000 0000 000000
2018-03-29 11:14:22,0.28,2.57,0.00,29.15,31.82,34.73,13.42,47.11,1009.04,2005.99,2517.44,2408.59,2759.88,599.71,579.31,15.12,0000 0000 0000 0000 000000
2018-03-29 11:19:23,0.31,2.59,0.00,29.13,31.82,34.71,13.43,47.23,1009.21,2005.99,2512.99,2405.51,2756.29,599.79,579.40,15.17,0000 0000 0000 0000 000000
2018-03-29 11:24:24,0.36,2.61,0.00,29.10,31.82,34.72,13.52,47.27,1009.19,2005.99,2507.91,2401.89,2752.23,600.05,579.79,15.22,0000 0000 0000 0000 000000
2018-03-29 11:29:26,0.39,2.62,0.00,29.07,31.82,34.72,13.58,47.42,1009.28,2005.98,2502.33,2397.79,2747.71,600.31,580.17,15.27,0000 0000 0000 0000 000000
2018-03-29 11:34:27,0.34,2.64,0.00,29.05,31.80,34.74,13.49,47.29,1009.26,2005.99,2497.15,2394.13,2743.61,599.87,579.76,15.32,0000 0000 0000 0000 000000
2018-03-29 11:39:28,0.29,2.66,0.00,29.01,31.80,34.76,13.47,47.30,1009.14,2005.98,2492.79,2390.84,2739.73,599.94,579.83,15.37,0000 0000 0000 0000 000000
2018-03-29 11:44:29,0.28,2.67,0.00,28.97,31.79,34.74,13.61,47.37,1009.28,2005.99,2488.82,2388.12,2736.54,600.09,580.08,15.42,0000 0000 0000 0000 000000
2018-03-29 11:49:30,0.42,2.69,0.00,28.96,31.77,34.74,13.54,47.42,1009.29,2005.99,2483.18,2384.29,2732.34,599.77,579.96,15.47,0000 0000 0000 0000 000000
2018-03-29 11:54:32,0.36,2.71,0.00,28.94,31.77,34.76,13.61,47.47,1009.29,2005.99,2477.68,2380.23,2727.67,600.23,580.26,15.52,0000 0000 0000 0000 000000
2018-03-29 11:59:33,0.30,2.73,0.00,28.92,31.76,34.73,13.57,47.23,1009.29,2005.99,2473.36,2376.99,2723.81,600.14,580.30,15.57,0000 0000 0000 0000 000000
2018-03-29 12:04:34,0.32,2.74,0.00,28.88,31.75,34.79,13.57,47.25,1009.30,2005.99,2468.84,2373.72,2720.04,600.02,580.24,15.62,0000 0000 0000 0000 000000
2018-03-29 12:09:36,0.28,2.76,0.00,28.87,31.74,34.79,13.56,47.27,1009.30,2005.99,2464.50,2370.70,2716.54,600.03,580.25,15.67,0000 0000 0000 0000 000000
2018-03-29 12:14:37,0.28,2.77,0.00,28.82,31.72,34.78,13.49,47.23,1009.30,2005.99,2460.61,2368.04,2713.40,599.74,580.17,15.72,0000 0000 0000 0000 000000
2018-03-29 12:19:38,0.36,2.79,0.00,28.80,31.71,34.77,13.54,47.09,1009.31,2005.99,2455.67,2364.63,2709.28,600.03,580.40,15.77,0000 0000 0000 0000 000000
2018-03-29 12:24:39,0.34,2.81,0.00,28.78,31.70,34.77,13.59,47.21,1009.33,2005.99,2450.60,2361.06,2705.23,600.48,580.89,15.82,0000 0000 0000 0000 000000
2018-03-29 12:29:40,0.35,2.82,0.00,28.75,31.68,34.77,13.53,47.20,1009.36,2005.99,2445.72,2357.55,2701.21,599.86,580.35,15.87,0000 0000 0000 0000 000000
2018-03-29 12:34:42,0.39,2.84,0.00,28.72,31.67,34.74,13.54,47.17,1009.31,2005.99,2440.35,2353.73,2696.87,599.91,580.36,15.92,0000 0000 0000 0000 000000
2018-03-29 12:39:43,0.42,2.86,0.00,28.71,31.65,34.71,13.63,47.27,1009.31,2006.00,2434.53,2349.57,2692.17,600.25,580.80,15.97,0000 0000 0000 0000 000000
2018-03-29 12:44:45,0.45,2.89,0.00,28.69,31.64,34.70,13.47,47.30,1009.32,2006.01,2428.43,2345.05,2687.12,599.92,580.50,16.02,0000 0000 0000 0000 000000
2018-03-29 12:49:46,0.44,2.91,0.00,28.66,31.62,34.68,13.50,47.27,1009.30,2006.03,2422.58,2340.61,2682.02,599.66,580.43,16.07,0000 0000 0000 0000 000000
2018-03-29 12:54:47,0.45,2.93,0.00,28.62,31.60,34.64,13.57,47.39,1009.30,2006.04,2416.50,2336.07,2676.72,599.98,580.69,16.12,0000 0000 0000 0000 000000